Portada
METAR-TAF:

METAR-TAF

Aeroports :

Ardabil, Iran

latitud: 38-19-35N, longitud: 048-25-28E, altitud: 1315 m

Observació

L'informe es va fer fa 1 hora i 21 minuts, a les 23:50 UTC
Vent 6 kt del Nord
Temperatura 1°C
Humitat 100%
Pressió 1024 hPa
Visibilitat: 0100 m
Cel cobert a una alçada de 200 ft
boira

METAR: OITL 132350Z 35006KT 0100 R33/0400N FG OVC002 01/01 Q1024

Hora: 04:41 (01:11 UTC)


TAF: manca

Observacions i pronòstics meteorològics de més de 4000 aeroports (METAR i TAF).

Les estacions disponibles són els punts grocs i vermells al mapa.

Posi el ratolí al punt desitjat per veure el nom de l'estació.

Feu clic per veure les observacions i els pronòstics meteorològics.

Per canviar el mapa: feu clic els botons verds amb una creu de color negre per apropar; al botó verd amb un guió per allunyar la imatge; o en les fletxes verdes per a mapes adjacents.


METAR-TAF: